Погода Ермаковское

Погода Ермаковское : погода сейчас, прогноз погоды и архив. Всё, что Вы хотите узнать о погоде Ермаковское!

Хотите узнать прогноз погоды Ермаковское? Тогда Вам сюда: Погода Ермаковское

Поиск расширенной информации на нашем сайте:

Другие новости

Новости СМИ2

Главная страница сайта

Новости сайта

03.07.2017

Напоминаем, что на нашем специализированном сайте Метеоцентр.Азия вы можете получить высокодетализированные автоматические прогнозы погоды по пунктам России, СНГ и мира в авиационном формате (включающие направление и скорость ветра, видимость, явления погоды, количество и форму облачности, нижнюю и верхнюю границу облачности).

Рекомендуем: минск-вильнюс расписание автобусов

Погода Ермаковское - сегодня

Время (UTC), дата Ветер
(°,м/с) 
Видим.   Явления Облачность Т
(°С)
Тd
(°С)
f(%) Тe
(°С)
Pmin
(гПа)
dP
(гПа)
Po
(мм)
O2
(г/м3)
Тmin Tmax R s Состояние
почвы
15 18.09.17 020 (С) н/о  в посл. час ливневой дождь  9/9 600 м кучево-дожд. 
[Cb cap]
+15.8 +11.8 77 +21  1011.2  1.4  732  277           
18 18.09.17 тихо ()   н/о  слаб. ливневой дождь  10/10 600 м кучево-дожд. 
[Cb cap]
+13.8 +11.8 88 +18  1010.9  -0.6  732  278           
21 18.09.17 тихо ()   н/о  {ливн. осадки}  ясно 
+11.7 +10.7 94 +14  1007.8  -3.2  729  280           
00 19.09.17 тихо ()   10 км  {ливн. осадки}  10/10 1000 м 
[Sc]
+11.1 +11 99 +14  1007.6  0.3  730  280  +10.5         
03 19.09.17 260 (З) 3{10}  20000 м  {ливн. осадки}  9/8 600 м кучево-дожд., средняя, верхняя 
[Cb cap|Ac lent|Cc]
+14.6 +11.2 80 +18  1008.7  1.2  730  277  +10.1         
06 19.09.17 250 (З) 20000 м  {ливн. осадки}  9/8 600 м кучево-дожд., средняя, верхняя 
[Cb cap|Ac lent|Cc]
+17.7 +9.3 58 +19  1009.3  0.9  731  275           
09 19.09.17 250 (З) 3{10}  20000 м    10/10 600 м кучево-дожд. 
[Cb cap]
+17.2 +7 51 +18  1009.6  0.2  731  276           
12 19.09.17 тихо ()   20000 м    8/8 600 м кучево-дожд., средняя, верхняя 
[Cb cap|Ac cast|Ci fib]
+13.2 +9.1 76 +14  1010.9  0.8  732  280    +18.3  0.0     
15 19.09.17 290 (З) н/о    10/10 1000 м 
[Sc]
+9.4 +7.9 90 +9  1012.5  1.1  733  284           
18 19.09.17 340 (С) н/о    10/10 1000 м 
[Sc]
+10 +5.6 74 +11  1012.7  0.2  733  284           
21 19.09.17 280 (З) н/о    10/10 1000 м 
[Sc]
+10.6 +4.9 68 +12  1013.2  0.7  733  284           
00 20.09.17 260 (З) 20000 м  слаб. ливневой дождь  10/10 600 м кучево-дожд. 
[Cb cap]
+10.4 +4.6 67 +10  1014.6  1.1  734  284  +8.2    0.0    влажная 
03 20.09.17 260 (З) 10 км  слаб. ливневой дождь  10/10 600 м кучево-дожд. 
[Cb cap]
+10 +5.6 74 +10  1016.2  1.6  735  285           
06 20.09.17 300 (СЗ) 5-10{12}  10 км  ливневой дождь  10/10 600 м кучево-дожд. 
[Cb cap]
+10.1 +4.5 68 +9  1017.9  1.6  737  285           
09 20.09.17 270 (З) 2{10}  10 км  ливневой дождь  10/10 600 м кучево-дожд. 
[Cb cap]
+7.2 +6.3 94 +7  1020.3  738  289           
12 20.09.17 тихо ()   10 км  {ливн. осадки}  8/8 600 м кучево-дожд. 
[Cb cap]
+8.1 +7.5 96 +8  1020.9  0.7  739  288    +10.5  10     
15 20.09.17 280 (З) н/о    ясно 
+6.7 +4.6 86 +7  1022.5  1.4  740  290           
18 20.09.17 200 (Ю) н/о    4/0 верхняя 
[Ci fib]
+5 +4.1 94 +6  1022.7  740  292           
21 20.09.17 тихо ()   н/о  дымка  ясно 
+2 +1.5 96 +2  1021.8  -1.3  739  295           
00 21.09.17 030 (СВ) 0500 м  туман  5/0 верхняя 
[Ci fib]
+1.2 +0.9 98 +2  1019.9  -2  737  296  +0.7        влажная 
03 21.09.17 040 (СВ) 20000 м  {туман}  9/9 1000 м 
[Sc]
+5.3 +4.6 95 +6  1016.6  -2.6  735  290           
06 21.09.17 070 (В) 20000 м  {туман}  10/10 1000 м 
[Sc]
+11.6 +6.1 69 +13  1011.6  -4  732  282           
09 21.09.17 200 (Ю) 10 км  ливневой дождь  10/10 600 м кучево-дожд. 
[Cb cap]
+11 +7.3 78 +12  1008.6  -3  730  281           
12 21.09.17 080 (В) 20000 м  {ливн. осадки}  9/9 600 м кучево-дожд. 
[Cb cap]
+8.4 +7.6 95 +9  1006  -2.8  728  283    +13.4     
15 21.09.17 040 (СВ) н/о  ливневой дождь  10/10 600 м кучево-дожд. 
[Cb cap]
+7.3 +7.1 99 +8  1003.9  -2.2  726  284           
Время (UTC), дата Ветер
(°,м/с) 
Видим.   Явления Облачность Т
(°С)
Тd
(°С)
f(%) Тe
(°С)
Pmin
(гПа)
dP
(гПа)
Po
(мм)
O2
(г/м3)
Тmin Tmax R s Состояние
почвы

Для получения пояснительной информации подведите курсор к названию столбца.

ПОГОДА Ермаковское - архив

Всё, что Вы хотите узнать о погоде Ермаковское - удобно и подробно!

Выберите нужную дату (начиная с 1 января 2015* года) и нажмите кнопку "Найти".
Будут отображены архивные сводки погоды по пункту Ермаковское, начиная с указанной даты.


Отображать данные в формате CSV (для использования в таблицах Excel)


Внимание! Наш архив погоды предназначен исключительно для личного некоммерческого использования в познавательных целях. Если Вам необходимы официальные справки о состоянии погоды (для производственных, юридических, коммерческих и т.п. целей), обращайтесь в органы Росгидромета.

*Примечание: данная дата относится к архиву по метеостанциям СССР (Россия, СНГ, Балтия).
Архив по метеостанциям Зарубежной Европы и Азии (кроме Китая) хранится 10 дней, по другим регионам земного шара (Китай, Африка, Америка, Австралия, Океания) - 1 день.

Ермаковское - район местоположения метеостанции


Название, широта, долгота, высота метеостанции:
Ермаковское 53.3°ш. 92.4°д. 298 м над ур. моря [Российская Федерация]

Дополнительная информация

В oтличие oт бoльшинства пoгoдных сайтoв мы публикуем пoдрoбную метеoинфoрмацию в детальнoм прoфессиoнальнoм фoрмате.

Характеристики температуры и влажнoсти вoздуха измеряются на высoте 2 м в тени вдали oт зданий и деревьев.
Скoрoсть ветра измеряется на высoте 10 м (на урoвне рoста челoвека скoрoсть ветра ниже в 1.5-2 раза). Если метеoстанция нахoдится в гoрoде или в лесу, тo скoрoсть ветра занижена на 2-4 м/с пo сравнению с oткрытым местoм. Скoрoсть ветра над акватoриями крупных рек и oзёр, а также на вершинах хoлмoв на 2-5 м/с выше, чем в oбычных услoвиях.
Атмoсфернoе давление в разных тoчках местнoсти мoжет значительнo oтличаться oт давления на метеoстанции, в зависимoсти oт услoвий рельефа (при пoдъёме на 10 м давление пoнижается примернo на 1 мм рт.ст.).